EW7114 Weather Reports


Display with metric or nautical units.
time (UTC)temp
F
wind
direction
speed
MPH
gust
MPH
rain 1hr
in
rain 24hr
in
rain mn
in
humidity
%
barometer
mb
20260505034524 57 127 8.0 14.0 0.00 0.00 0.00 52 1000.6
20260505034023 57 105 9.0 12.0 0.00 0.00 0.00 52 1000.6
20260505033525 57 130 9.0 12.0 0.00 0.00 0.00 52 1000.5
20260505033033 57 149 5.0 8.0 0.00 0.00 0.00 52 1000.6
20260505032623 57 151 5.0 10.0 0.00 0.00 0.00 52 1000.5
20260505032023 57 135 5.0 9.0 0.00 0.00 0.00 52 1000.5
20260505031523 57 112 3.0 11.0 0.00 0.00 0.00 52 1000.3
20260505031022 57 152 6.0 16.0 0.00 0.00 0.00 52 1000.2
20260505030521 58 134 8.0 16.0 0.00 0.00 0.00 52 1000.2
20260505030021 58 138 9.0 16.0 0.00 0.00 0.00 51 1000.2
20260505025521 58 135 10.0 17.0 0.00 0.00 0.00 51 1000.1
20260505025021 58 157 10.0 17.0 0.00 0.00 0.00 51 1000.1
20260505024527 58 136 9.0 13.0 0.00 0.00 0.00 51 1000.1
20260505024022 58 165 9.0 19.0 0.00 0.00 0.00 51 1000.1
20260505023520 58 140 12.0 22.0 0.00 0.00 0.00 51 1000.1
20260505023031 59 159 14.0 21.0 0.00 0.00 0.00 50 1000.0
20260505022520 60 159 15.0 21.0 0.00 0.00 0.00 49 999.9
20260505022020 60 175 15.0 22.0 0.00 0.00 0.00 48 999.9
20260505021519 61 177 16.0 19.0 0.00 0.00 0.00 47 999.8
20260505021021 62 160 14.0 23.0 0.00 0.00 0.00 45 999.9
20260505020518 63 168 15.0 23.0 0.00 0.00 0.00 43 999.8
20260505020019 64 153 10.0 16.0 0.00 0.00 0.00 40 999.6
20260505015620 64 145 11.0 16.0 0.00 0.00 0.00 39 999.4
20260505015018 64 142 9.0 13.0 0.00 0.00 0.00 38 999.2
20260505014531 65 135 9.0 13.0 0.00 0.00 0.00 38 999.2
20260505014018 65 130 7.0 11.0 0.00 0.00 0.00 37 999.1
20260505013516 66 122 6.0 10.0 0.00 0.00 0.00 37 999.1
20260505013017 66 157 5.0 8.0 0.00 0.00 0.00 37 999.0
20260505012516 67 184 3.0 5.0 0.00 0.00 0.00 37 999.1
20260505012016 67 196 1.0 5.0 0.00 0.00 0.00 37 999.1
20260505011515 68 217 2.0 5.0 0.00 0.00 0.00 36 999.0
20260505011014 68 218 2.0 4.0 0.00 0.00 0.00 35 999.1
20260505010514 68 228 1.0 5.0 0.00 0.00 0.00 36 999.2
20260505010013 68 239 1.0 6.0 0.00 0.00 0.00 37 999.2
20260505005511 68 245 1.0 7.0 0.00 0.00 0.00 36 999.2
20260505005011 67 245 2.0 7.0 0.00 0.00 0.00 36 999.3
20260505004515 67 255 1.0 8.0 0.00 0.00 0.00 38 999.4
20260505004009 67 249 2.0 9.0 0.00 0.00 0.00 39 999.4
20260505003507 67 222 7.0 9.0 0.00 0.00 0.00 40 999.6
20260505003007 67 197 1.0 6.0 0.00 0.00 0.00 39 999.6
20260505002507 67 228 2.0 6.0 0.00 0.00 0.00 37 999.6
20260505002007 67 220 3.0 6.0 0.00 0.00 0.00 38 999.6
20260505001507 67 184 0.0 5.0 0.00 0.00 0.00 36 999.6
20260505001007 67 184 3.0 5.0 0.00 0.00 0.00 36 999.7
20260505000505 67 199 0.0 6.0 0.00 0.00 0.00 36 999.7
20260505000010 68 165 4.0 8.0 0.00 0.00 0.00 35 999.7
20260504235505 68 325 3.0 8.0 0.00 0.00 0.00 35 999.7
20260504235004 68 288 2.0 8.0 0.00 0.00 0.00 36 999.7
20260504234504 68 244 2.0 8.0 0.00 0.00 0.00 36 999.7
20260504234006 67 264 1.0 9.0 0.00 0.00 0.00 36 999.7
20260504233504 67 267 2.0 7.0 0.00 0.00 0.00 37 999.7
20260504233003 67 345 0.0 3.0 0.00 0.00 0.00 37 999.7
20260504232505 67 345 1.0 6.0 0.00 0.00 0.00 37 999.7
20260504232003 66 302 1.0 6.0 0.00 0.00 0.00 37 999.7
20260504231502 66 246 1.0 4.0 0.00 0.00 0.00 37 999.8
20260504231002 66 317 2.0 5.0 0.00 0.00 0.00 37 999.8
20260504230502 66 355 0.0 5.0 0.00 0.00 0.00 37 999.9
20260504230101 66 359 2.0 5.0 0.00 0.00 0.00 37 999.9
20260504225600 66 359 0.0 5.0 0.00 0.00 0.00 40 1000.0
20260504225059 65 28 0.0 4.0 0.00 0.00 0.00 41 1000.2
20260504224600 65 355 1.0 9.0 0.00 0.00 0.00 40 1000.2
20260504224058 64 28 3.0 9.0 0.00 0.00 0.00 42 1000.3
20260504223601 64 43 3.0 10.0 0.00 0.00 0.00 42 1000.5
20260504223101 63 95 6.0 14.0 0.00 0.00 0.00 43 1000.6
20260504222559 63 100 9.0 16.0 0.00 0.00 0.00 43 1000.6
20260504222058 64 109 10.0 14.0 0.00 0.00 0.00 42 1000.6
20260504221558 64 93 9.0 14.0 0.00 0.00 0.00 42 1000.6
20260504221057 65 84 9.0 14.0 0.00 0.00 0.00 43 1000.7
20260504220557 65 107 8.0 12.0 0.00 0.00 0.00 42 1000.8
20260504220056 64 155 2.0 8.0 0.00 0.00 0.00 43 1000.9
20260504215601 63 128 2.0 8.0 0.00 0.00 0.00 43 1001.0
20260504215056 63 124 4.0 10.0 0.00 0.00 0.00 44 1001.1
20260504214657 63 136 4.0 10.0 0.00 0.00 0.00 45 1001.2
20260504214055 63 130 6.0 9.0 0.00 0.00 0.00 46 1001.3
20260504213556 63 84 2.0 6.0 0.00 0.00 0.00 44 1001.3
20260504213057 63 9 2.0 6.0 0.00 0.00 0.00 42 1001.4
20260504212556 63 59 3.0 8.0 0.00 0.00 0.00 44 1001.7
20260504212058 63 59 3.0 12.0 0.00 0.00 0.00 44 1001.7
20260504211556 63 24 5.0 17.0 0.00 0.00 0.00 45 1001.8
20260504211055 63 57 9.0 17.0 0.00 0.00 0.00 45 1001.7
20260504210554 63 41 11.0 22.0 0.00 0.00 0.00 45 1001.6
20260504205556 65 51 12.0 20.0 0.00 0.00 0.00 42 1001.4
20260504205058 64 53 13.0 24.0 0.00 0.00 0.00 44 1001.1
20260504204610 65 63 17.0 24.0 0.00 0.00 0.00 41 1000.9
20260504204055 65 49 8.0 18.0 0.00 0.00 0.00 40 1000.9
20260504203554 66 14 10.0 18.0 0.00 0.00 0.00 40 1000.8
20260504203124 66 19 12.0 20.0 0.00 0.00 0.00 40 1000.9
20260504202554 66 359 13.0 20.0 0.00 0.00 0.00 40 1000.8
20260504202054 66 332 13.0 22.0 0.00 0.00 0.00 39 1000.7
20260504201553 66 345 14.0 22.0 0.00 0.00 0.00 39 1000.7
20260504201053 67 329 12.0 16.0 0.00 0.00 0.00 38 1000.7
20260504200552 67 318 8.0 18.0 0.00 0.00 0.00 38 1000.7
20260504200052 66 339 11.0 18.0 0.00 0.00 0.00 37 1000.7
20260504195552 67 313 2.0 14.0 0.00 0.00 0.00 36 1000.6
20260504195052 66 201 4.0 14.0 0.00 0.00 0.00 38 1000.4
20260504194552 67 190 3.0 10.0 0.00 0.00 0.00 38 1000.4
20260504194052 67 195 5.0 10.0 0.00 0.00 0.00 38 1000.4
20260504193552 67 228 7.0 10.0 0.00 0.00 0.00 38 1000.5
20260504193052 67 175 5.0 10.0 0.00 0.00 0.00 38 1000.4
20260504192551 68 220 5.0 12.0 0.00 0.00 0.00 38 1000.4
20260504192051 68 244 5.0 11.0 0.00 0.00 0.00 36 1000.4
20260504191554 68 253 5.0 12.0 0.00 0.00 0.00 35 1000.4
20260504191051 68 252 7.0 16.0 0.00 0.00 0.00 36 1000.3
20260504190550 68 249 10.0 16.0 0.00 0.00 0.00 35 1000.3
20260504190053 68 227 7.0 16.0 0.00 0.00 0.00 35 1000.3
20260504185550 68 258 9.0 16.0 0.00 0.00 0.00 36 1000.4
20260504185049 68 265 10.0 20.0 0.00 0.00 0.00 34 1000.4
20260504184549 69 246 13.0 20.0 0.00 0.00 0.00 34 1000.2
20260504184048 70 311 0.0 6.0 0.00 0.00 0.00 32 1000.3
20260504183548 70 251 1.0 8.0 0.00 0.00 0.00 32 1000.5
20260504183046 71 253 3.0 12.0 0.00 0.00 0.00 32 1000.7
20260504182546 71 209 4.0 12.0 0.00 0.00 0.00 32 1000.7
20260504182046 72 207 6.0 10.0 0.00 0.00 0.00 33 1000.7
20260504181544 71 235 3.0 9.0 0.00 0.00 0.00 33 1000.8
20260504181043 71 233 3.0 14.0 0.00 0.00 0.00 32 1000.8
20260504180541 71 134 8.0 14.0 0.00 0.00 0.00 33 1001.1
20260504180041 70 157 2.0 9.0 0.00 0.00 0.00 33 1001.1
20260504175540 70 88 4.0 11.0 0.00 0.00 0.00 33 1001.1
20260504175040 70 262 2.0 10.0 0.00 0.00 0.00 33 1001.1
20260504174540 70 197 5.0 10.0 0.00 0.00 0.00 33 1001.3
20260504174039 70 107 8.0 12.0 0.00 0.00 0.00 34 1001.3
20260504173537 70 43 4.0 12.0 0.00 0.00 0.00 34 1001.5
20260504173040 69 151 7.0 13.0 0.00 0.00 0.00 35 1001.5
20260504172536 69 125 3.0 13.0 0.00 0.00 0.00 34 1001.6
20260504172036 69 90 4.0 12.0 0.00 0.00 0.00 35 1001.6
20260504171537 69 55 4.0 13.0 0.00 0.00 0.00 35 1001.6
20260504171034 69 165 4.0 12.0 0.00 0.00 0.00 34 1001.8
20260504170532 69 140 6.0 12.0 0.00 0.00 0.00 36 1001.7
20260504151005 59 179 7.0 10.0 0.00 0.00 0.00 49 1003.0
20260504150505 59 177 7.0 11.0 0.00 0.00 0.00 49 1003.1
20260504141049 52 180 5.0 7.0 0.00 0.00 0.00 49 1003.8
20260504140549 52 175 4.0 6.0 0.00 0.00 0.00 47 1003.8
20260504130543 49 201 2.0 4.0 0.00 0.00 0.00 46 1003.8
20260504110534 51 165 2.0 5.0 0.00 0.00 0.00 53 1004.3
20260504100526 49 204 3.0 6.0 0.00 0.00 0.00 53 1004.4
20260504081613 42 248 1.0 6.0 0.00 0.00 0.00 54 1004.5
20260504081012 43 248 4.0 6.0 0.00 0.00 0.00 54 1004.5
20260504080512 43 249 2.0 6.0 0.00 0.00 0.00 54 1004.7
20260504050535 45 213 2.0 4.0 0.00 0.00 0.00 53 1004.3
20260504045531 45 176 3.0 4.0 0.00 0.00 0.00 53 1004.3
20260504045030 46 318 0.0 1.0 0.00 0.00 0.00 53 1004.3
20260504044529 46 318 0.0 2.0 0.00 0.00 0.00 54 1004.3
20260504044027 46 318 0.0 3.0 0.00 0.00 0.00 54 1004.3
20260504043527 47 318 0.0 3.0 0.00 0.00 0.00 54 1004.3
20260504043024 48 318 0.0 3.0 0.00 0.00 0.00 54 1004.2
20260504042523 47 318 1.0 3.0 0.00 0.00 0.00 54 1004.2
20260504042021 47 318 0.0 2.0 0.00 0.00 0.00 54 1004.3
20260504041535 47 318 0.0 2.0 0.00 0.00 0.00 54 1004.3
20260504041019 46 318 0.0 3.0 0.00 0.00 0.00 52 1004.3
20260504040517 46 318 0.0 3.0 0.00 0.00 0.00 51 1004.4
20260504040020 46 70 2.0 3.0 0.00 0.00 0.00 50 1004.3
20260504035514 47 160 0.0 2.0 0.00 0.00 0.00 50 1004.2
20260504035013 47 160 1.0 4.0 0.00 0.00 0.00 49 1004.2